Meteo Giornale » Osservazioni meteo Gran Bretagna » Londra City AP

ore: 05:20 - Osservazioni Meteo Londra City AP
Lat. 51° 30' N Lon. 0° 30' W Alt. 5 metri s.l.m.

coperto_pioggia Europe/London

18 °C

Pioggia Debole

Temp. 24 Ore

18 °C

24 °C

Nord

5.5 Km/h

Dew point 16 °C

Umidità 88 %

Visibilità  10 Km

Il sole sorge alle ore 05:50

Il sole tramonta alle ore 20:20

Data e Ora Cielo e Fenomeni T °C DP °C Um. % Pres. hPa Vis. km Vento km/h
Oggi h: 05:20 coperto_pioggia Pioggia Debole 18 16 88 1015 10 N 5.5
Oggi h: 04:50 coperto Coperto 18 16 88 1015 10 N 5.5
Oggi h: 04:20 coperto Coperto 18 16 88 1015 10 N 5.5
Oggi h: 03:50 molto_nuvoloso Molto Nuvoloso 18 17 93 1015 10 N/NO 9.3
Oggi h: 03:20 molto_nuvoloso Molto Nuvoloso 19 17 88 1015 10 N 7.4
Oggi h: 02:50 molto_nuvoloso Molto Nuvoloso 19 16 82 1015 10 NE 7.4
Oggi h: 02:20 molto_nuvoloso Molto Nuvoloso 19 17 88 1015 10 E/NE 11.1
Oggi h: 01:50 molto_nuvoloso Molto Nuvoloso 19 17 88 1015 10 E/NE 11.1
Oggi h: 01:20 molto_nuvoloso Molto Nuvoloso 19 17 88 1015 10 NE 9.3
Oggi h: 00:50 molto_nuvoloso Molto Nuvoloso 19 17 88 1015 10 N/NE 7.4
Oggi h: 00:20 coperto Coperto 19 17 88 1015 10 N 11.1
Ieri h: 23:50 coperto Coperto 19 17 88 1015 10 N 7.4
Ieri h: 23:20 coperto Coperto 19 17 88 1015 10 N 5.5
Ieri h: 22:50 molto_nuvoloso Molto Nuvoloso 19 17 88 1015 10 NE 9.3
Ieri h: 22:20 poco_nuvoloso Poco Nuvoloso 19 17 88 1015 10 E/NE 11.1
Ieri h: 21:50 molto_nuvoloso Molto Nuvoloso 20 17 82 1014 10 N 11.1
Ieri h: 21:20 poco_nuvoloso Poco Nuvoloso 20 17 82 1014 10 NE 11.1
Ieri h: 20:50 nuvoloso Nuvoloso 20 18 88 1014 10 N 11.1
Ieri h: 20:20 molto_nuvoloso Molto Nuvoloso 20 18 88 1014 10 N 11.1
Ieri h: 19:50 molto_nuvoloso Molto Nuvoloso 20 18 88 1014 10 NE 7.4
Ieri h: 19:20 nuvoloso Nuvoloso 20 18 88 1013 10 N 7.4
Ieri h: 18:50 molto_nuvoloso Molto Nuvoloso 20 17 82 1013 10 N 11.1
Ieri h: 18:20 sereno Sereno 20 17 82 1012 10 N 11.1
Ieri h: 17:50 poco_nuvoloso Poco Nuvoloso 20 17 82 1012 10 N 11.1
Ieri h: 17:20 molto_nuvoloso Molto Nuvoloso 20 17 82 1013 10 N/NE 11.1
Ieri h: 16:50 nuvoloso_temporali Temporale nelle Vicinanze 20 17 82 1013 10 N 9.3
Ieri h: 16:20 nuvoloso_temporali Temporale nelle Vicinanze 21 18 82 1012 10 N 9.3
Ieri h: 15:50 molto_nuvoloso Molto Nuvoloso 21 18 82 1012 10 N/NO 13
Ieri h: 15:20 nuvoloso_temporali Temporale nelle Vicinanze 22 18 78 1012 10 N 5.5
Ieri h: 14:50 sereno Sereno 22 18 78 1012 10 E/SE 9.3
Ieri h: 14:20 coperto_pioggia Pioggia Debole 21 18 82 1012 10 E/SE 16.7
Ieri h: 13:50 coperto_pioggia Pioggia Debole 21 18 82 1012 7 E 22.2
Ieri h: 13:20 nuvoloso Nuvoloso 24 16 60 1011 10 E 14.8
Ieri h: 12:50 molto_nuvoloso Molto Nuvoloso 24 15 57 1011 10 N 9.3
Ieri h: 12:20 nuvoloso Nuvoloso 24 15 57 1012 10 E/NE 14.8
Ieri h: 11:50 molto_nuvoloso Molto Nuvoloso 23 16 64 1012 10 NE 13
Ieri h: 11:20 molto_nuvoloso Molto Nuvoloso 23 16 64 1012 10 NE 14.8
Ieri h: 10:50 molto_nuvoloso Molto Nuvoloso 22 16 68 1012 9 E/NE 14.8
Ieri h: 10:20 molto_nuvoloso Molto Nuvoloso 21 16 73 1012 8 E/NE 14.8
Ieri h: 09:50 foschia Foschia 20 17 82 1012 5 NE 11.1
Ieri h: 09:20 foschia Foschia 19 17 88 1012 4 E/NE 9.3
Ieri h: 08:50 foschia Foschia 19 17 88 1012 3 NE 11.1
Ieri h: 08:20 foschia Foschia 19 17 88 1011 4 NE 7.4
Ieri h: 07:50 foschia Foschia 19 17 88 1011 4 N 7.4
Ieri h: 07:20 foschia Foschia 18 17 93 1011 4 N 5.5
Ieri h: 06:50 foschia Foschia 18 17 93 1010 4 N 3.7
Ieri h: 06:20 foschia Foschia 18 17 93 1010 4 N 3.7
Ieri h: 05:50 foschia Foschia 18 17 93 1010 4 N 3.7